Weather History for Northeast Philadelphia, PA

Change the Weather History Date:

Monday, November 4, 2013

  Actual Average Record
Temperature  
Mean Temperature 39 °F -  
Max Temperature 46 °F 56 °F 69 °F (2003)
Min Temperature 32 °F 38 °F 32 °F (2006)
Degree Days  
Heating Degree Days 26    
Moisture  
Dew Point 20 °F    
Average Humidity 49    
Maximum Humidity 67    
Minimum Humidity 29    
Precipitation  
Precipitation 0.01 in - - ()
Sea Level Pressure  
Sea Level Pressure 30.61 in    
Wind  
Wind Speed 8 mph (NE)    
Max Wind Speed 16 mph    
Max Gust Speed -    
Visibility 10 miles    
Events      
Averages and records for this station are not official NWS values.
T = Trace of Precipitation, MM = Missing Value Source: NWS Daily Summary

Daily Weather History Graph

Daily Weather History Graph

Search for Another Location

Airport:

Trip Planner

Search our weather history database for the weather conditions in past years. The results will help you decide how hot, cold, wet, or windy it might be!

Date:

Astronomy

Nov. 04, 2013 Rise Set
Actual Time 6:32 AM EST 4:53 PM EST
Civil Twilight 6:04 AM EST 5:22 PM EST
Nautical Twilight 5:32 AM EST 5:54 PM EST
Astronomical Twilight 5:00 AM EST 6:25 PM EST
Moon 7:40 AM EST (11/4) 5:56 PM EST (11/4)
Length of Visible Light 11h 17m
Length of Day
10h 20m
New Moon, 2% of the Moon is Illuminated
Nov 4
New Moon
Nov 10
First Quarter
Nov 17
Full
Nov 25
Last Quarter
Dec 2
New

Hourly Weather History & Observations

Time (EST) Temp. Windchill Dew Point Humidity Pressure Visibility Wind Dir Wind Speed Gust Speed Precip Events Conditions
12:54 AM 33.1 °F 26.9 °F 19.9 °F 59% 30.51 in 10.0 mi NNW 6.9 mph - N/A   Clear
1:54 AM 34.0 °F 28.0 °F 19.9 °F 56% 30.53 in 10.0 mi North 6.9 mph - N/A   Clear
2:54 AM 34.0 °F 26.6 °F 19.9 °F 56% 30.53 in 10.0 mi North 9.2 mph - N/A   Clear
3:54 AM 33.1 °F 25.5 °F 19.0 °F 56% 30.55 in 10.0 mi North 9.2 mph - N/A   Clear
4:54 AM 33.1 °F 24.9 °F 19.0 °F 56% 30.57 in 10.0 mi North 10.4 mph - N/A   Clear
5:54 AM 32.0 °F 23.6 °F 19.9 °F 61% 30.58 in 10.0 mi North 10.4 mph - N/A   Clear
6:54 AM 32.0 °F 24.8 °F 19.0 °F 59% 30.61 in 10.0 mi North 8.1 mph - N/A   Clear
7:54 AM 36.0 °F 27.5 °F 19.0 °F 50% 30.63 in 10.0 mi NNE 12.7 mph - 0.01 in   Clear
8:54 AM 39.0 °F 30.6 °F 19.0 °F 45% 30.65 in 10.0 mi NE 15.0 mph - N/A   Clear
9:54 AM 42.1 °F 34.2 °F 16.0 °F 35% 30.64 in 10.0 mi NE 16.1 mph - N/A   Clear
10:54 AM 44.1 °F 37.7 °F 17.1 °F 34% 30.64 in 10.0 mi NNE 12.7 mph - N/A   Clear
11:54 AM 45.0 °F 42.6 °F 16.0 °F 31% 30.64 in 10.0 mi Variable 4.6 mph - N/A   Clear
12:54 PM 46.9 °F - 16.0 °F 29% 30.61 in 10.0 mi ESE 5.8 mph - N/A   Clear
1:54 PM 46.9 °F - 16.0 °F 29% 30.62 in 10.0 mi NE 5.8 mph - N/A   Clear
2:54 PM 46.9 °F - 17.1 °F 30% 30.62 in 10.0 mi NE 8.1 mph - N/A   Clear
3:54 PM 46.0 °F 43.1 °F 19.0 °F 34% 30.62 in 10.0 mi East 5.8 mph - N/A   Clear
4:54 PM 44.1 °F 41.5 °F 19.9 °F 38% 30.64 in 10.0 mi ENE 4.6 mph - N/A   Clear
5:54 PM 43.0 °F 39.5 °F 21.9 °F 43% 30.63 in 10.0 mi ENE 5.8 mph - N/A   Clear
6:54 PM 42.1 °F 37.1 °F 25.0 °F 51% 30.64 in 10.0 mi ESE 8.1 mph - N/A   Clear
7:54 PM 39.9 °F 37.8 °F 26.1 °F 58% 30.65 in 10.0 mi East 3.5 mph - N/A   Clear
8:54 PM 37.9 °F - 26.1 °F 62% 30.66 in 10.0 mi Calm Calm - N/A   Clear
9:54 PM 37.0 °F - 26.1 °F 65% 30.67 in 10.0 mi Calm Calm - N/A   Clear
10:54 PM 37.0 °F - 27.0 °F 67% 30.66 in 10.0 mi Calm Calm - N/A   Clear
11:54 PM 37.0 °F 33.3 °F 27.0 °F 67% 30.66 in 10.0 mi NE 4.6 mph - N/A   Clear